{"data":{"norad_id":66109,"intl_designator":"2025-236Z","name":"STARLINK-35545","alt_names":[],"object_type":"PAYLOAD","status":"ACTIVE","operator":null,"country":"US","launch_date":"2025-10-19","launch_site_code":"AFWTR","launch_vehicle":null,"mission":null,"orbit_class":"UNKNOWN","rcs_meters":null,"size_class":null,"mass_kg":null,"dimensions":null,"purposes":["comms"],"wikipedia_slug":null,"has_3d_model":false,"image_url":null,"decayed_at":null,"tle_current":{"epoch":"2026-09-20T05:13:27.997824Z","epoch_age_seconds":124821,"freshness":"FRESH","line1":"1 66109U 25236Z   26263.21768516  .00012130  00000+0  36956-3 0  9993","line2":"2 66109  53.1586 277.0503 0001843  90.1390 269.9824 15.34400246 52774","mean_motion":15.34400246,"eccentricity":0.0001843,"inclination_deg":53.1586,"raan_deg":277.0503,"arg_perigee_deg":90.139,"mean_anomaly_deg":269.9824,"bstar":0.00036956,"rev_number":5277,"period_min":93.847743035359,"perigee_km":461.44174232184,"apogee_km":463.96327576488,"semimajor_km":6840.8395090434,"source":"CELESTRAK","updated_at":"2026-09-21T09:00:35.805131Z"}}}